When you browse on this site, cookies collect data to enhance your experience and personalize the content and advertising you see.
Visit our Privacy Policy to learn more. By continuing to use the site, you agree to this use of cookies and data.
  • Em Portugal
  • Lista de países
  • Para 7 dias
  • Temperatura da água
  • Mapas de satélite
  • Mapa do tempo
  • Widgets de tempo
  • user-avatar
    Iniciar Sessão

    Previsão horária em Rarwino

    Hoje, 16 Janeiro, Quarta-feira

    Tempo Temperatura Precipitação Vento Pressão Humidade
    00:00 +2°C° 0 mm 9 m/s 751 mmHg 86%
    01:00 +3°C° 0 mm 7 m/s 751 mmHg 87%
    02:00 +3°C° 0.5 mm 6 m/s 751 mmHg 89%
    03:00 +3°C° 0.5 mm 5 m/s 751 mmHg 92%
    04:00 +3°C° 0.5 mm 5 m/s 751 mmHg 94%
    05:00 +4°C° 0.6 mm 6 m/s 751 mmHg 91%
    06:00 +4°C° 0.6 mm 7 m/s 751 mmHg 89%
    07:00 +5°C° 0 mm 5 m/s 752 mmHg 91%
    08:00 +4°C° 0.1 mm 6 m/s 752 mmHg 88%
    09:00 +4°C° 0.1 mm 6 m/s 752 mmHg 86%
    10:00 +4°C° 0.1 mm 7 m/s 752 mmHg 84%
    11:00 +4°C° 0 mm 7 m/s 752 mmHg 84%
    12:00 +4°C° 0 mm 7 m/s 752 mmHg 84%
    13:00 +4°C° 0 mm 7 m/s 751 mmHg 85%
    14:00 +4°C° 0 mm 7 m/s 751 mmHg 85%
    15:00 +4°C° 0 mm 7 m/s 751 mmHg 85%
    16:00 +4°C° 0 mm 8 m/s 750 mmHg 85%
    17:00 +4°C° 0 mm 8 m/s 750 mmHg 84%
    18:00 +4°C° 0 mm 8 m/s 750 mmHg 84%
    19:00 +4°C° 0 mm 8 m/s 749 mmHg 84%
    20:00 +4°C° 0.2 mm 8 m/s 749 mmHg 83%
    21:00 +2°C° 0.2 mm 8 m/s 748 mmHg 83%
    22:00 +2°C° 0.2 mm 8 m/s 748 mmHg 82%
    23:00 +2°C° 0.5 mm 8 m/s 747 mmHg 82%

    Amanhã, 17 Janeiro, Quinta-feira

    Tempo Temperatura Precipitação Vento Pressão Humidade
    00:00 +2°C° 0.5 mm 8 m/s 747 mmHg 82%
    01:00 +1°C° 0.5 mm 8 m/s 746 mmHg 83%
    02:00 +1°C° 0.7 mm 8 m/s 745 mmHg 82%
    03:00 +1°C° 0.7 mm 8 m/s 745 mmHg 82%
    04:00 +1°C° 0.7 mm 8 m/s 744 mmHg 82%
    05:00 +1°C° 0.8 mm 8 m/s 744 mmHg 82%
    06:00 +1°C° 0.8 mm 8 m/s 744 mmHg 83%
    07:00 +1°C° 0.8 mm 8 m/s 744 mmHg 83%
    08:00 +2°C° 0.1 mm 8 m/s 744 mmHg 82%
    09:00 +2°C° 0.1 mm 8 m/s 745 mmHg 82%
    10:00 +3°C° 0.1 mm 7 m/s 745 mmHg 81%
    11:00 +2°C° 0 mm 8 m/s 745 mmHg 78%
    12:00 +2°C° 0 mm 8 m/s 745 mmHg 74%
    13:00 +2°C° 0 mm 9 m/s 745 mmHg 71%
    14:00 +2°C° 0 mm 9 m/s 745 mmHg 71%
    15:00 +2°C° 0 mm 8 m/s 745 mmHg 71%
    16:00 +2°C° 0 mm 8 m/s 745 mmHg 72%
    17:00 +1°C° 0 mm 8 m/s 745 mmHg 73%
    18:00 +2°C° 0 mm 7 m/s 746 mmHg 74%
    19:00 +2°C° 0 mm 6 m/s 746 mmHg 75%
    20:00 0°C° 0 mm 7 m/s 746 mmHg 75%
    21:00 0°C° 0 mm 7 m/s 747 mmHg 75%
    22:00 0°C° 0 mm 7 m/s 747 mmHg 76%
    23:00 -1°C° 0.2 mm 7 m/s 748 mmHg 77%

    Depois de amanhã, 18 Janeiro, Sexta-feira

    Tempo Temperatura Precipitação Vento Pressão Humidade
    00:00 -1°C° 0.2 mm 8 m/s 748 mmHg 77%
    01:00 -1°C° 0.2 mm 9 m/s 749 mmHg 78%
    02:00 -3°C° 0.6 mm 9 m/s 750 mmHg 79%
    03:00 -3°C° 0.6 mm 9 m/s 751 mmHg 81%
    04:00 -3°C° 0.6 mm 9 m/s 752 mmHg 82%
    05:00 -2°C° 0.1 mm 8 m/s 753 mmHg 78%
    06:00 -2°C° 0.1 mm 7 m/s 754 mmHg 75%
    07:00 -2°C° 0.1 mm 6 m/s 755 mmHg 72%
    08:00 -2°C° 0 mm 6 m/s 756 mmHg 72%
    09:00 -1°C° 0 mm 5 m/s 758 mmHg 72%
    10:00 -1°C° 0 mm 5 m/s 759 mmHg 72%
    11:00 -1°C° 0 mm 5 m/s 759 mmHg 72%
    12:00 0°C° 0 mm 5 m/s 759 mmHg 71%
    13:00 0°C° 0 mm 5 m/s 760 mmHg 71%
    14:00 0°C° 0 mm 5 m/s 760 mmHg 71%
    15:00 -1°C° 0 mm 5 m/s 760 mmHg 72%
    16:00 -1°C° 0 mm 5 m/s 761 mmHg 73%
    17:00 -1°C° 0 mm 5 m/s 761 mmHg 75%
    18:00 -1°C° 0 mm 5 m/s 761 mmHg 77%
    19:00 -1°C° 0 mm 5 m/s 761 mmHg 78%
    20:00 -1°C° 0 mm 5 m/s 761 mmHg 80%
    21:00 -1°C° 0 mm 5 m/s 762 mmHg 82%
    22:00 -1°C° 0 mm 5 m/s 762 mmHg 85%
    23:00 -2°C° 0 mm 4 m/s 762 mmHg 86%

    19 Janeiro, Sábado

    Tempo Temperatura Precipitação Vento Pressão Humidade
    00:00 -2°C° 0 mm 4 m/s 762 mmHg 88%
    01:00 -1°C° 0 mm 3 m/s 762 mmHg 89%
    02:00 -1°C° 0 mm 3 m/s 763 mmHg 90%
    03:00 -1°C° 0 mm 3 m/s 763 mmHg 91%
    04:00 -1°C° 0 mm 3 m/s 763 mmHg 92%
    05:00 -1°C° 0 mm 3 m/s 763 mmHg 92%
    06:00 -2°C° 0 mm 3 m/s 763 mmHg 93%
    07:00 -2°C° 0 mm 3 m/s 763 mmHg 93%
    08:00 -1°C° 0 mm 3 m/s 763 mmHg 92%
    09:00 -1°C° 0 mm 3 m/s 763 mmHg 91%
    10:00 -1°C° 0 mm 3 m/s 763 mmHg 90%
    11:00 0°C° 0 mm 3 m/s 763 mmHg 88%
    12:00 +1°C° 0 mm 2 m/s 763 mmHg 86%
    13:00 +2°C° 0 mm 2 m/s 763 mmHg 84%
    14:00 +1°C° 0 mm 2 m/s 763 mmHg 85%
    15:00 +1°C° 0 mm 2 m/s 763 mmHg 87%
    16:00 +1°C° 0 mm 1 m/s 763 mmHg 88%
    17:00 +1°C° 0 mm 1 m/s 763 mmHg 88%
    18:00 +1°C° 0 mm 1 m/s 763 mmHg 89%
    19:00 +1°C° 0 mm 1 m/s 763 mmHg 89%
    20:00 +1°C° 0 mm 1 m/s 763 mmHg 89%
    21:00 0°C° 0 mm 1 m/s 763 mmHg 89%
    22:00 0°C° 0 mm 1 m/s 763 mmHg 89%
    23:00 0°C° 0 mm 1 m/s 763 mmHg 89%

    20 Janeiro, Domingo

    Tempo Temperatura Precipitação Vento Pressão Humidade
    00:00 0°C° 0 mm 1 m/s 763 mmHg 89%
    01:00 0°C° 0 mm 1 m/s 763 mmHg 89%
    02:00 0°C° 0 mm 1 m/s 763 mmHg 89%
    03:00 0°C° 0 mm 1 m/s 763 mmHg 89%
    04:00 0°C° 0 mm 1 m/s 762 mmHg 89%
    05:00 0°C° 0 mm 1 m/s 762 mmHg 89%
    06:00 0°C° 0 mm 1 m/s 762 mmHg 89%
    07:00 0°C° 0 mm 1 m/s 762 mmHg 89%
    08:00 0°C° 0 mm 1 m/s 763 mmHg 88%
    09:00 0°C° 0 mm 1 m/s 763 mmHg 87%
    10:00 +1°C° 0 mm 1 m/s 763 mmHg 85%
    11:00 +1°C° 0 mm 1 m/s 763 mmHg 83%
    12:00 +1°C° 0 mm 2 m/s 763 mmHg 81%
    13:00 +1°C° 0 mm 2 m/s 763 mmHg 79%
    14:00 +1°C° 0 mm 2 m/s 763 mmHg 81%
    15:00 -1°C° 0 mm 3 m/s 763 mmHg 83%
    16:00 -1°C° 0 mm 3 m/s 763 mmHg 85%
    17:00 -1°C° 0 mm 3 m/s 763 mmHg 86%
    18:00 -2°C° 0 mm 4 m/s 763 mmHg 87%
    19:00 -2°C° 0 mm 4 m/s 764 mmHg 89%
    20:00 -1°C° 0.1 mm 4 m/s 764 mmHg 86%
    21:00 -1°C° 0.1 mm 4 m/s 764 mmHg 83%
    22:00 -1°C° 0.1 mm 4 m/s 765 mmHg 80%
    23:00 -2°C° 0 mm 4 m/s 765 mmHg 77%

    21 Janeiro, Segunda-feira

    Tempo Temperatura Precipitação Vento Pressão Humidade
    00:00 -2°C° 0 mm 4 m/s 766 mmHg 73%
    01:00 -3°C° 0 mm 4 m/s 766 mmHg 69%
    02:00 -3°C° 0 mm 4 m/s 766 mmHg 71%
    03:00 -2°C° 0 mm 3 m/s 767 mmHg 72%
    04:00 -2°C° 0 mm 3 m/s 767 mmHg 74%
    05:00 -2°C° 0 mm 3 m/s 767 mmHg 73%
    06:00 -2°C° 0 mm 2 m/s 768 mmHg 72%
    07:00 -3°C° 0 mm 2 m/s 768 mmHg 71%
    08:00 0°C° 0 mm 1 m/s 768 mmHg 69%
    09:00 0°C° 0 mm 1 m/s 769 mmHg 68%
    10:00 -1°C° 0 mm 0 m/s 769 mmHg 66%
    11:00 0°C° 0 mm 0 m/s 769 mmHg 63%
    12:00 +1°C° 0 mm 1 m/s 769 mmHg 61%
    13:00 +1°C° 0 mm 1 m/s 770 mmHg 58%
    14:00 +1°C° 0 mm 1 m/s 769 mmHg 61%
    15:00 0°C° 0 mm 1 m/s 769 mmHg 63%
    16:00 0°C° 0 mm 1 m/s 769 mmHg 66%
    17:00 0°C° 0 mm 1 m/s 769 mmHg 67%
    18:00 -1°C° 0 mm 1 m/s 769 mmHg 69%
    19:00 -1°C° 0 mm 1 m/s 769 mmHg 70%
    20:00 -3°C° 0 mm 2 m/s 769 mmHg 71%
    21:00 -3°C° 0 mm 2 m/s 769 mmHg 72%
    22:00 -3°C° 0 mm 2 m/s 769 mmHg 73%
    23:00 -4°C° 0 mm 3 m/s 768 mmHg 74%
    Mostrar mais